Regional Weather Roundup
Issued by NWS Lake Charles, LA

Home | Current Version | Previous Version | Text Only | Print | Product List | Glossary On
Versions: 1 2 3 4 5 6 7 8 9 10 11 12 13 14 15 16 17 18 19 20 21 22 23 24 25 26 27 28 29 30 31 32 33 34 35 36 37 38 39 40 41 42 43 44 45 46 47 48 49 50
000
ASUS44 KLCH 120510
RWRLCH
RWRLCH
REGIONAL WEATHER ROUNDUP
NATIONAL WEATHER SERVICE LAKE CHARLES LA
1200 AM CDT SAT JUL 12 2014

Note: "fair" indicates few or no clouds below 12,000 feet with no
significant weather and/or obstructions to visibility.


ACROSS SOUTHEAST TEXAS

CITY           SKY/WX    TMP DP  RH WIND       PRES   REMARKS
BEAUMONT       CLEAR     79  75  87 CALM      30.12F
BEAUMONT CITY    N/A     77  74  90 CALM      30.14S
ORANGE         PTCLDY    74  70  88 CALM      30.15S
JASPER         CLEAR     76  73  89 CALM      30.16S
$$

ACROSS CENTRAL LOUISIANA

CITY           SKY/WX    TMP DP  RH WIND       PRES   REMARKS
LEESVILLE      CLEAR     81  74  79 SW3       30.13S
FULLERTON        N/A     79  73  82 VRB3      30.11S
ALEXANDRIA INT MOCLDY    79  72  79 SE7       30.12S
ESLER FIELD    MOCLDY    77  73  87 CALM      30.15S
DERIDDER         N/A     79  73  81 CALM      30.15S
OAKDALE        CLEAR     76  74  92 CALM      30.14S
OPELOUSAS        N/A     75  71  87 CALM      30.14S
$$

ACROSS SOUTHWEST AND SOUTH CENTRAL LOUISIANA

CITY           SKY/WX    TMP DP  RH WIND       PRES   REMARKS
SULPHUR        CLEAR     80  75  83 CALM      30.14S
LAKE CHARLES   CLEAR     80  75  84 SW5       30.12S
CHENNAULT INT  CLEAR     82  74  76 SW5       30.13S
CAMERON PHI    CLEAR     84  75  74 SW5       30.13F
DEQUINCY         N/A     74  69  82 CALM      30.13F
JENNINGS         N/A     78  75  88 CALM      30.13F
LAFAYETTE      PTCLDY    77  73  87 CALM      30.14S
NEW IBERIA     MOCLDY    76  72  87 SE5       30.14F
ABBEVILLE        N/A     75  73  96 CALM      30.14S
PATTERSON      CLOUDY    75  73  94 CALM      30.17F
SALT POINT       N/A     79  74  84 CALM      30.13F
$$

SELECTED SITES ACROSS THE REGION

CITY           SKY/WX    TMP DP  RH WIND       PRES   REMARKS
HOUSTON BUSH   PTCLDY    81  72  74 S5        30.13R
HOUSTON HOBBY  PTCLDY    79  73  82 S3        30.13S
GALVESTON      CLEAR     82  74  76 S8        30.14S
COLLEGE STAT   CLEAR     81  70  69 S6        30.13S
CONROE         CLEAR     74  73  97 CALM      30.14S
HUNTSVILLE     CLEAR     79  71  76 S5        30.13S
LUFKIN         CLEAR     83  73  72 SW6       30.13S
SHREVEPORT     PTCLDY    79  71  76 CALM      30.12R
MONROE         CLEAR     73  69  87 NE3       30.16R
NATCHEZ MS     PTCLDY    75  70  83 SE5       30.16R
BATON ROUGE    MOCLDY    74  72  93 NE3       30.14S
N.O. INTL ARPT CLOUDY    76  73  91 CALM      30.13F
SLIDELL        MOCLDY    73  71  93 CALM      30.12F
$$

MARINE REPORTS

STATION/POSITION TIME  TEMP    WIND        PRES    VSBY  WAVE
                       AIR SEA DIR/SP/G                  HT/PER
                 (UTC) (F)     (DEG/KT/KT) (MB)    (MI)  (FT/S)
BUOY 30 S HIGH I NOT AVBL
SEA RIM ST PARK  0500   83     220/  3/  4 1020.7F
PORT ARTHUR      0500      88  230/  4/  6 1020.2F
SABINE PASS N    0500   81 88  310/  3/  4 1020.4S
TEXAS POINT      0500   83 88  220/  5/  9 1020.4S
CALCASIEU PASS   0500   85 89  240/  6/  9 1021.4F
LK CHARLES BEACH 0500   83 88              1020.9F
MARSH ISLAND     0400   83     180/  6/  9   N/A
FRESH WATER LOCK 0500   81 88  150/  3/  3 1020.2F
AMERADA PASS     0500   76 83   70/  2/  3 1020.4F
$$



USA.gov is the U.S. government's official web portal to all federal, state and local government web resources and services.